Погода в Любнице

Россия / Новгородская область     57°58′11″N   32°41′50″E
темп.,
°C
ветер,
м/с
пор.,
м/с
влажн.,
%
обл.,
%
осадки,
мм/ч
давл.,
гПа
погр.,
м
6 марта, сб
сб600:00−8з228949 0.0 101675
03:00−7зсз279367 0.1 1017378
06:00−9зсз129796 0.1 101774
09:00−8з259094 0.1 1017262
12:00−4з357197 0.0 1016912
15:00−3зюз476080 0.0 10141262
18:00−4юз4106562 0.0 10101034
21:00−4юз7159181 0.2 10061321
7 марта, вс
вс700:00−3юз71594100 1.9 10001345
03:00−3юз71494100 4.3 9961218
06:00−2юз51196100 3.1 991878
09:00−5зсз2890100 6.9 989917
12:00−5зсз4869100 1.8 9911526
15:00−4зюз366589 1.8 9921260
18:00−4зюз3882100 1.1 992989
21:00−7ссв41188100 1.4 993573
8 марта, пн
пн800:00−11с389165 0.0 995203
03:00−13зсз2109644 0.0 998273
06:00−9зсз4119499 0.4 999802
09:00−10ссз5109099 0.8 1002725
12:00−9ссз5885100 0.2 1005808
15:00−9ссз5884100 0.3 1008788
18:00−11ссз4988100 0.1 1011754
21:00−14ссз3995100 0.2 1014547
9 марта, вт
вт900:00−16ссз2598100 0.0 1016161
03:00−18сз229995 0.1 101724
06:00−19зсз119980 0.0 101820
09:00−15ю129573 0.0 1017100
12:00−10ю2488100 0.1 1016401
15:00−8юв2391100 0.9 1015360
18:00−8всв2592100 0.4 1014293
21:00−11в3693100 0.4 1016211
10 марта, ср
ср1000:00−12вюв3693100 0.1 1017239
03:00−12вюв3794100 0.5 1016267
06:00−13вюв4994100 0.5 1016291
09:00−13вюв4992100 1.0 1015304
12:00−10вюв489099 0.3 1014354
15:00−7юв369299 0.6 1012331
18:00−6юв4794100 0.6 1010311
21:00−6юв3496100 1.1 1009121